BAW59 EGLL-FACT

Flight info

Callsign BAW59
Flight time N/A
Altitude 33000
Route MODMI M185 MID L612 BENBO UL612 VEULE DCT DEKOD DCT DISAK DCT MINPA DCT FJR DCT OBLAD DCT KAMER UM998 CSO/N0490F350 UA605 DJA UB730 DIR UA607 FL/N0495F370 UA403 BZ DCT KSA UT943 DILBO/N0488F390 UT943 IMVEX/N0489F380 UT943 UNLOK/N0487F390 UT943 VEDRY/N0486F380 UN185 OKLOK Q23 DUMDO DCT ERDAS ERDAS1C
Aircraft A35K/H-SDE2E3GHIJ1J3J4J5LM1ORWXY/LB1D1

Departure

Time 2026-05-03 23:16
Airport London Heathrow Airport (EGLL)

Arrival

Time N/A
Airport Cape Town International Airport (FACT)
Time Latitude Longitude Altitude Speed Heading
2026-05-03 22:40 51.46984 -0.47733 92 ft 0 kts 89°
2026-05-03 23:01 51.46984 -0.47735 92 ft 2 kts 89°
2026-05-03 23:01 51.46984 -0.47777 91 ft 4 kts 89°
2026-05-03 23:02 51.46983 -0.47812 90 ft 4 kts 92°
2026-05-03 23:02 51.46989 -0.47851 90 ft 4 kts 130°
2026-05-03 23:02 51.47009 -0.47869 91 ft 3 kts 179°
2026-05-03 23:02 51.47035 -0.47869 92 ft 4 kts 179°
2026-05-03 23:03 51.47044 -0.47869 92 ft 0 kts 179°
2026-05-03 23:03 51.47044 -0.47870 92 ft 0 kts 179°
2026-05-03 23:06 51.47032 -0.47870 93 ft 3 kts 179°
2026-05-03 23:06 51.46996 -0.47869 94 ft 6 kts 179°
2026-05-03 23:07 51.46948 -0.47868 92 ft 8 kts 180°
2026-05-03 23:07 51.46890 -0.47868 94 ft 9 kts 180°
2026-05-03 23:07 51.46825 -0.47867 92 ft 10 kts 179°
2026-05-03 23:07 51.46751 -0.47866 92 ft 11 kts 180°
2026-05-03 23:08 51.46675 -0.47847 95 ft 11 kts 143°
2026-05-03 23:08 51.46655 -0.47730 93 ft 12 kts 91°
2026-05-03 23:08 51.46655 -0.47591 94 ft 13 kts 90°
2026-05-03 23:08 51.46655 -0.47439 95 ft 14 kts 90°
2026-05-03 23:09 51.46656 -0.47275 95 ft 15 kts 90°
2026-05-03 23:09 51.46657 -0.47100 93 ft 16 kts 90°
2026-05-03 23:09 51.46658 -0.46916 95 ft 17 kts 90°
2026-05-03 23:09 51.46658 -0.46721 96 ft 18 kts 89°
2026-05-03 23:10 51.46659 -0.46517 95 ft 18 kts 89°
2026-05-03 23:10 51.46660 -0.46338 95 ft 16 kts 89°
2026-05-03 23:10 51.46660 -0.46151 94 ft 17 kts 90°
2026-05-03 23:10 51.46661 -0.45952 94 ft 18 kts 89°
2026-05-03 23:11 51.46661 -0.45744 92 ft 19 kts 90°
2026-05-03 23:11 51.46662 -0.45527 92 ft 20 kts 89°
2026-05-03 23:11 51.46663 -0.45302 95 ft 20 kts 90°
2026-05-03 23:11 51.46664 -0.45071 92 ft 21 kts 89°
2026-05-03 23:12 51.46664 -0.44834 92 ft 22 kts 90°
2026-05-03 23:12 51.46666 -0.44589 92 ft 21 kts 89°
2026-05-03 23:12 51.46666 -0.44431 92 ft 12 kts 90°
2026-05-03 23:12 51.46666 -0.44290 93 ft 13 kts 89°
2026-05-03 23:13 51.46667 -0.44134 92 ft 15 kts 89°
2026-05-03 23:13 51.46667 -0.43988 95 ft 8 kts 90°
2026-05-03 23:13 51.46667 -0.43889 93 ft 10 kts 91°
2026-05-03 23:13 51.46659 -0.43813 96 ft 2 kts 134°
2026-05-03 23:14 51.46649 -0.43814 95 ft 1 kts 185°
2026-05-03 23:14 51.46620 -0.43821 95 ft 9 kts 185°
2026-05-03 23:14 51.46547 -0.43827 92 ft 12 kts 183°
2026-05-03 23:14 51.46502 -0.43863 95 ft 6 kts 241°
2026-05-03 23:15 51.46496 -0.43924 93 ft 0 kts 266°
2026-05-03 23:15 51.46496 -0.43938 92 ft 6 kts 266°
2026-05-03 23:15 51.46493 -0.44234 92 ft 59 kts 270°
2026-05-03 23:15 51.46490 -0.45259 94 ft 124 kts 270°
2026-05-03 23:16 51.46477 -0.46954 118 ft 176 kts 272°
2026-05-03 23:16 51.46467 -0.48877 827 ft 171 kts 268°
2026-05-03 23:16 51.46441 -0.50810 1472 ft 175 kts 267°
2026-05-03 23:16 51.46381 -0.52732 2030 ft 174 kts 266°
2026-05-03 23:17 51.46167 -0.54665 2411 ft 180 kts 249°
2026-05-03 23:17 51.45513 -0.56390 2822 ft 183 kts 231°
2026-05-03 23:17 51.44676 -0.58006 3135 ft 196 kts 227°
2026-05-03 23:17 51.43568 -0.59410 3326 ft 212 kts 206°
2026-05-03 23:18 51.42113 -0.60150 3598 ft 226 kts 192°
2026-05-03 23:18 51.40523 -0.60625 3931 ft 240 kts 188°
2026-05-03 23:18 51.38829 -0.60547 4211 ft 254 kts 167°
2026-05-03 23:18 51.37121 -0.59702 4759 ft 260 kts 161°
2026-05-03 23:19 51.35412 -0.58723 5384 ft 262 kts 161°
2026-05-03 23:19 51.33683 -0.57735 5861 ft 264 kts 161°
2026-05-03 23:19 51.31946 -0.56762 6256 ft 267 kts 162°
2026-05-03 23:19 51.30170 -0.55840 6881 ft 268 kts 167°
2026-05-03 23:20 51.28320 -0.55592 7540 ft 267 kts 185°
2026-05-03 23:20 51.26465 -0.55861 8216 ft 270 kts 187°
2026-05-03 23:20 51.24597 -0.56248 8901 ft 272 kts 190°
2026-05-03 23:20 51.22723 -0.56774 9590 ft 274 kts 192°
2026-05-03 23:21 51.20838 -0.57384 10198 ft 280 kts 193°
2026-05-03 23:21 51.18880 -0.58050 10502 ft 296 kts 193°
2026-05-03 23:21 51.16808 -0.58756 10788 ft 312 kts 193°
2026-05-03 23:21 51.14631 -0.59487 11094 ft 328 kts 193°
2026-05-03 23:22 51.09978 -0.61008 11672 ft 357 kts 192°
2026-05-03 23:22 51.07471 -0.61548 12125 ft 366 kts 182°
2026-05-03 23:22 51.04926 -0.61099 12750 ft 371 kts 166°
2026-05-03 23:23 51.02522 -0.59506 13356 ft 377 kts 154°
2026-05-03 23:23 51.00242 -0.57383 13907 ft 383 kts 149°
2026-05-03 23:23 50.98013 -0.55017 14398 ft 388 kts 147°
2026-05-03 23:23 50.95793 -0.52535 14936 ft 391 kts 147°
2026-05-03 23:24 50.93561 -0.50026 15473 ft 394 kts 147°
2026-05-03 23:24 50.91380 -0.47606 15989 ft 397 kts 147°
2026-05-03 23:24 50.89104 -0.45122 16520 ft 400 kts 148°
2026-05-03 23:24 50.86786 -0.42633 17056 ft 403 kts 148°
2026-05-03 23:25 50.84446 -0.40148 17585 ft 407 kts 148°
2026-05-03 23:25 50.82085 -0.37652 18128 ft 410 kts 149°
2026-05-03 23:25 50.79703 -0.35139 18612 ft 413 kts 149°
2026-05-03 23:25 50.77305 -0.32610 19110 ft 415 kts 149°
2026-05-03 23:26 50.74892 -0.30066 19608 ft 418 kts 149°
2026-05-03 23:26 50.72465 -0.27508 20133 ft 421 kts 149°
2026-05-03 23:26 50.70023 -0.24935 20643 ft 424 kts 149°
2026-05-03 23:26 50.67564 -0.22346 21155 ft 426 kts 149°
2026-05-03 23:27 50.65086 -0.19741 21653 ft 429 kts 149°
2026-05-03 23:27 50.62629 -0.17160 22154 ft 432 kts 149°
2026-05-03 23:27 50.60120 -0.14529 22664 ft 435 kts 149°
2026-05-03 23:27 50.57560 -0.11847 23169 ft 438 kts 149°
2026-05-03 23:28 50.55050 -0.09223 23658 ft 441 kts 150°
2026-05-03 23:28 50.52455 -0.06512 24099 ft 443 kts 150°
2026-05-03 23:28 50.49921 -0.03868 24550 ft 444 kts 150°
2026-05-03 23:28 50.47341 -0.01179 24987 ft 446 kts 150°
2026-05-03 23:29 50.44748 0.01520 25449 ft 447 kts 150°
2026-05-03 23:29 50.42154 0.04216 25900 ft 449 kts 150°
2026-05-03 23:29 50.39542 0.06927 26344 ft 450 kts 150°
2026-05-03 23:29 50.36931 0.09633 26782 ft 452 kts 151°
2026-05-03 23:30 50.34302 0.12352 27197 ft 454 kts 151°
2026-05-03 23:30 50.31660 0.15082 27610 ft 456 kts 151°
2026-05-03 23:30 50.29011 0.17814 28013 ft 458 kts 151°
2026-05-03 23:30 50.26346 0.20560 28391 ft 459 kts 151°
2026-05-03 23:31 50.23669 0.23315 28764 ft 461 kts 151°
2026-05-03 23:31 50.20980 0.26079 29095 ft 463 kts 151°
2026-05-03 23:31 50.18282 0.28848 29453 ft 465 kts 152°
2026-05-03 23:31 50.15584 0.31616 29928 ft 463 kts 152°
2026-05-03 23:32 50.12895 0.34373 30363 ft 462 kts 152°
2026-05-03 23:32 50.10214 0.37116 30709 ft 462 kts 152°
2026-05-03 23:32 50.07522 0.39864 30992 ft 462 kts 152°
2026-05-03 23:32 50.04833 0.42586 31287 ft 461 kts 153°
2026-05-03 23:33 50.02129 0.45275 31614 ft 461 kts 153°
2026-05-03 23:33 49.99423 0.47941 31910 ft 460 kts 153°
2026-05-03 23:33 49.96720 0.50593 32199 ft 459 kts 154°
2026-05-03 23:33 49.94030 0.53234 32608 ft 456 kts 154°
2026-05-03 23:34 49.91359 0.55859 32975 ft 454 kts 154°
2026-05-03 23:34 49.88686 0.58481 33231 ft 455 kts 154°
2026-05-03 23:34 49.86013 0.61102 33448 ft 455 kts 154°
2026-05-03 23:34 49.83336 0.63725 33714 ft 455 kts 154°
2026-05-03 23:35 49.80664 0.66342 33984 ft 454 kts 154°
2026-05-03 23:35 49.77992 0.68956 34155 ft 454 kts 154°
2026-05-03 23:35 49.75354 0.71533 34297 ft 456 kts 154°
2026-05-03 23:35 49.72633 0.74186 34464 ft 456 kts 154°
2026-05-03 23:36 49.69994 0.76758 34636 ft 456 kts 154°
2026-05-03 23:36 49.67307 0.79370 34762 ft 457 kts 154°
2026-05-03 23:36 49.64615 0.81986 34888 ft 458 kts 153°
2026-05-03 23:36 49.61904 0.84613 34899 ft 462 kts 153°
2026-05-03 23:37 49.56439 0.89901 34941 ft 465 kts 154°
2026-05-03 23:37 49.50967 0.95187 34954 ft 464 kts 154°
2026-05-03 23:38 49.45500 1.00459 34961 ft 463 kts 154°
2026-05-03 23:38 49.40042 1.05704 34970 ft 462 kts 154°
2026-05-03 23:39 49.34588 1.10927 34966 ft 462 kts 154°
2026-05-03 23:39 49.29127 1.16144 34957 ft 462 kts 154°
2026-05-03 23:40 49.24591 1.20468 34964 ft 462 kts 154°
2026-05-03 23:40 49.18246 1.26499 34964 ft 461 kts 154°
2026-05-03 23:41 49.12792 1.31669 34966 ft 461 kts 154°
2026-05-03 23:41 49.08215 1.35997 34962 ft 462 kts 154°
2026-05-03 23:42 49.02734 1.41165 34960 ft 464 kts 154°
2026-05-03 23:42 48.97238 1.46336 34961 ft 465 kts 154°
2026-05-03 23:43 48.91733 1.51503 34963 ft 465 kts 154°
2026-05-03 23:43 48.86227 1.56658 34960 ft 465 kts 154°
2026-05-03 23:44 48.80714 1.61804 34961 ft 465 kts 154°
2026-05-03 23:44 48.75203 1.66934 34960 ft 465 kts 155°
2026-05-03 23:45 48.69694 1.72049 34959 ft 465 kts 155°
2026-05-03 23:45 48.64171 1.77164 34960 ft 467 kts 155°
2026-05-03 23:46 48.58607 1.82301 34960 ft 469 kts 155°
2026-05-03 23:46 48.53037 1.87435 34961 ft 469 kts 155°
2026-05-03 23:47 48.47505 1.92522 34962 ft 469 kts 155°
2026-05-03 23:47 48.41930 1.97632 34950 ft 469 kts 155°
2026-05-03 23:48 48.36317 2.02763 34966 ft 469 kts 154°
2026-05-03 23:48 48.30694 2.07717 34965 ft 465 kts 160°
2026-05-03 23:49 48.24671 2.10814 34968 ft 454 kts 173°
2026-05-03 23:49 48.18468 2.12374 34966 ft 451 kts 177°
2026-05-03 23:50 48.12254 2.13772 34972 ft 454 kts 173°
2026-05-03 23:50 48.06114 2.15808 34987 ft 456 kts 172°
2026-05-03 23:51 47.99938 2.18038 34992 ft 457 kts 171°
2026-05-03 23:51 47.93768 2.20300 34993 ft 457 kts 171°
2026-05-03 23:52 47.87588 2.22549 34994 ft 457 kts 171°
2026-05-03 23:52 47.81407 2.24781 34992 ft 457 kts 171°
2026-05-03 23:53 47.75228 2.27005 34970 ft 457 kts 172°
2026-05-03 23:53 47.69044 2.29223 34971 ft 457 kts 172°
2026-05-03 23:54 47.62863 2.31437 34971 ft 457 kts 172°
2026-05-03 23:54 47.56682 2.33646 34967 ft 457 kts 172°
2026-05-03 23:55 47.50502 2.35849 34974 ft 456 kts 172°
2026-05-03 23:55 47.44326 2.38045 34975 ft 456 kts 172°
2026-05-03 23:56 47.38148 2.40235 34977 ft 457 kts 172°
2026-05-03 23:56 47.31973 2.42420 34976 ft 456 kts 172°
2026-05-03 23:57 47.25811 2.44596 34979 ft 455 kts 172°
2026-05-03 23:57 47.19654 2.46764 34977 ft 455 kts 172°
2026-05-03 23:58 47.13489 2.48928 34981 ft 456 kts 171°
2026-05-03 23:58 47.07327 2.51088 34994 ft 455 kts 171°
2026-05-03 23:59 47.01168 2.53241 34994 ft 455 kts 171°
2026-05-03 23:59 46.95012 2.55389 34993 ft 455 kts 171°
2026-05-04 00:00 46.88852 2.57531 34990 ft 455 kts 171°
2026-05-04 00:00 46.82723 2.59658 34988 ft 455 kts 171°
2026-05-04 00:01 46.76515 2.61808 34985 ft 456 kts 171°
2026-05-04 00:01 46.70388 2.63925 34982 ft 456 kts 171°
2026-05-04 00:02 46.64218 2.66052 34984 ft 456 kts 171°
2026-05-04 00:02 46.58049 2.68174 34988 ft 456 kts 171°
2026-05-04 00:03 46.51872 2.70293 34983 ft 456 kts 171°
2026-05-04 00:03 46.45694 2.72407 34987 ft 457 kts 171°
2026-05-04 00:04 46.39502 2.74522 34993 ft 457 kts 171°
2026-05-04 00:04 46.33315 2.76630 34986 ft 457 kts 171°
2026-05-04 00:05 46.27131 2.78733 34995 ft 456 kts 171°
2026-05-04 00:05 46.20945 2.80830 34997 ft 457 kts 171°
2026-05-04 00:06 46.14756 2.82925 34999 ft 457 kts 171°
2026-05-04 00:06 46.08572 2.85013 34998 ft 456 kts 171°
2026-05-04 00:07 46.02395 2.87093 35005 ft 456 kts 171°
2026-05-04 00:07 45.96222 2.89166 35012 ft 455 kts 172°
2026-05-04 00:08 45.90050 2.91236 35013 ft 455 kts 172°
2026-05-04 00:08 45.83878 2.93301 35017 ft 455 kts 172°
2026-05-04 00:09 45.77707 2.95360 35020 ft 456 kts 172°
2026-05-04 00:09 45.71532 2.97416 35024 ft 455 kts 171°
2026-05-04 00:10 45.65362 2.99465 35020 ft 455 kts 171°
2026-05-04 00:10 45.59239 3.01495 35015 ft 455 kts 171°
2026-05-04 00:11 45.53078 3.03532 35004 ft 455 kts 171°
2026-05-04 00:11 45.46911 3.05566 35017 ft 455 kts 171°
2026-05-04 00:12 45.40731 3.07600 35024 ft 455 kts 171°
2026-05-04 00:12 45.34559 3.09628 35009 ft 456 kts 171°
2026-05-04 00:13 45.28365 3.11658 35024 ft 458 kts 171°
2026-05-04 00:13 45.22149 3.13691 35026 ft 458 kts 171°
2026-05-04 00:14 45.15934 3.15720 35027 ft 458 kts 171°
2026-05-04 00:14 45.09751 3.17982 35031 ft 462 kts 165°
2026-05-04 00:15 45.03692 3.21086 35029 ft 464 kts 163°
2026-05-04 00:15 44.97664 3.24338 35032 ft 464 kts 163°
2026-05-04 00:16 44.91629 3.27602 35031 ft 465 kts 163°
2026-05-04 00:16 44.85588 3.30844 35032 ft 465 kts 163°
2026-05-04 00:17 44.79540 3.34073 35034 ft 465 kts 163°
2026-05-04 00:17 44.73494 3.37290 35037 ft 465 kts 163°
2026-05-04 00:18 44.67446 3.40500 35038 ft 464 kts 163°
2026-05-04 00:18 44.61394 3.43706 35044 ft 465 kts 163°
2026-05-04 00:19 44.55347 3.46903 35042 ft 465 kts 163°
2026-05-04 00:19 44.49292 3.50097 35048 ft 465 kts 163°
2026-05-04 00:20 44.43233 3.53289 35059 ft 465 kts 163°
2026-05-04 00:20 44.37168 3.56474 35062 ft 465 kts 163°
2026-05-04 00:21 44.31112 3.59645 35063 ft 465 kts 163°
2026-05-04 00:21 44.25056 3.62813 35062 ft 465 kts 163°
2026-05-04 00:22 44.19036 3.65954 35064 ft 465 kts 163°
2026-05-04 00:22 44.12979 3.69108 35067 ft 465 kts 163°
2026-05-04 00:23 44.06917 3.72257 35065 ft 465 kts 163°
2026-05-04 00:23 44.00854 3.75399 35066 ft 465 kts 163°
2026-05-04 00:24 43.95778 3.78025 35053 ft 465 kts 163°
2026-05-04 00:24 43.88725 3.81665 35053 ft 465 kts 163°
2026-05-04 00:25 43.83643 3.84284 35066 ft 464 kts 163°
2026-05-04 00:25 43.77590 3.87396 35065 ft 464 kts 163°
2026-05-04 00:26 43.71532 3.90503 35057 ft 464 kts 163°
2026-05-04 00:26 43.65477 3.93600 35068 ft 464 kts 163°
2026-05-04 00:27 43.59424 3.96692 35048 ft 464 kts 163°
2026-05-04 00:27 43.53445 3.99916 35048 ft 466 kts 160°
2026-05-04 00:28 43.47529 4.03579 35050 ft 466 kts 159°
2026-05-04 00:28 43.41617 4.07265 35051 ft 466 kts 160°
2026-05-04 00:29 43.35687 4.10877 35044 ft 466 kts 160°
2026-05-04 00:29 43.29746 4.14447 35047 ft 466 kts 160°
2026-05-04 00:30 43.23804 4.18002 35046 ft 466 kts 160°
2026-05-04 00:30 43.17861 4.21552 35044 ft 466 kts 160°
2026-05-04 00:31 43.11929 4.25092 35046 ft 465 kts 160°
2026-05-04 00:31 43.05990 4.28628 35046 ft 465 kts 160°
2026-05-04 00:32 43.00055 4.32154 35047 ft 465 kts 160°
2026-05-04 00:32 42.94114 4.35676 35045 ft 465 kts 160°
2026-05-04 00:33 42.85230 4.40929 35037 ft 466 kts 160°
2026-05-04 00:34 42.79277 4.44440 35038 ft 466 kts 160°
2026-05-04 00:34 42.73318 4.47948 35036 ft 466 kts 160°
2026-05-04 00:35 42.67356 4.51449 35034 ft 466 kts 160°
2026-05-04 00:35 42.61395 4.54943 35034 ft 466 kts 161°
2026-05-04 00:36 42.55432 4.58430 35025 ft 467 kts 160°
2026-05-04 00:36 42.49455 4.61918 35026 ft 469 kts 160°
2026-05-04 00:37 42.43438 4.65420 35030 ft 471 kts 160°
2026-05-04 00:37 42.37411 4.68924 35027 ft 471 kts 160°
2026-05-04 00:38 42.31424 4.72398 35027 ft 471 kts 160°
2026-05-04 00:38 42.25345 4.75916 35037 ft 473 kts 160°
2026-05-04 00:39 42.19335 4.79387 35018 ft 473 kts 161°
2026-05-04 00:39 42.13282 4.82876 35035 ft 473 kts 161°
2026-05-04 00:40 42.07224 4.86361 35028 ft 474 kts 161°
2026-05-04 00:40 42.01148 4.89848 35034 ft 475 kts 161°
2026-05-04 00:41 41.95058 4.93336 35034 ft 476 kts 161°
2026-05-04 00:41 41.88968 4.96817 35030 ft 476 kts 161°
2026-05-04 00:42 41.82862 5.00298 35031 ft 477 kts 161°
2026-05-04 00:42 41.76602 5.03132 35037 ft 474 kts 167°
2026-05-04 00:43 41.70295 5.05673 35038 ft 473 kts 168°
2026-05-04 00:43 41.63977 5.08166 35036 ft 474 kts 169°
2026-05-04 00:44 41.57649 5.10664 35039 ft 474 kts 169°
2026-05-04 00:44 41.51324 5.13166 35039 ft 474 kts 169°
2026-05-04 00:45 41.44999 5.15668 35039 ft 474 kts 169°
2026-05-04 00:45 41.38676 5.18164 35043 ft 474 kts 169°
2026-05-04 00:46 41.32342 5.20659 35043 ft 474 kts 169°
2026-05-04 00:46 41.26056 5.23131 35040 ft 474 kts 169°
2026-05-04 00:47 41.19730 5.25613 35039 ft 475 kts 169°
2026-05-04 00:47 41.13391 5.28095 35043 ft 475 kts 169°
2026-05-04 00:48 41.07055 5.30570 35040 ft 475 kts 170°
2026-05-04 00:48 41.00723 5.33039 35015 ft 475 kts 170°
2026-05-04 00:49 40.94360 5.35514 35040 ft 478 kts 170°
2026-05-04 00:49 40.87968 5.37996 35039 ft 479 kts 170°
2026-05-04 00:50 40.81573 5.40476 35046 ft 479 kts 170°
2026-05-04 00:50 40.75176 5.42951 35035 ft 480 kts 170°
2026-05-04 00:51 40.68745 5.45432 35036 ft 482 kts 170°
2026-05-04 00:51 40.62305 5.47914 35038 ft 482 kts 170°
2026-05-04 00:52 40.55872 5.50388 35042 ft 482 kts 170°
2026-05-04 00:52 40.49429 5.52861 35040 ft 482 kts 170°
2026-05-04 00:53 40.42992 5.55326 35041 ft 482 kts 170°
2026-05-04 00:53 40.36551 5.57788 35042 ft 482 kts 170°
2026-05-04 00:54 40.30110 5.60244 35034 ft 484 kts 171°
2026-05-04 00:54 40.23632 5.62708 35034 ft 485 kts 171°
2026-05-04 00:55 40.17151 5.65172 35038 ft 485 kts 171°
2026-05-04 00:55 40.10669 5.67631 35018 ft 485 kts 171°
2026-05-04 00:56 40.04175 5.70088 35041 ft 487 kts 171°
2026-05-04 00:56 39.97699 5.72533 35052 ft 489 kts 171°
2026-05-04 00:57 39.91161 5.74997 35208 ft 489 kts 171°
2026-05-04 00:57 39.87891 5.76234 35309 ft 488 kts 171°
2026-05-04 00:57 39.84630 5.77476 35395 ft 489 kts 171°
2026-05-04 00:58 39.78089 5.79991 35423 ft 492 kts 171°
2026-05-04 00:58 39.71499 5.82560 35450 ft 495 kts 171°
2026-05-04 00:59 39.64898 5.85169 35572 ft 495 kts 171°
2026-05-04 00:59 39.58304 5.87799 35697 ft 496 kts 171°
2026-05-04 01:00 39.51746 5.90429 35719 ft 498 kts 170°
2026-05-04 01:00 39.45117 5.93099 35770 ft 499 kts 170°
2026-05-04 01:01 39.38484 5.95775 35830 ft 500 kts 170°
2026-05-04 01:01 39.31835 5.98455 35864 ft 501 kts 170°
2026-05-04 01:02 39.25169 6.01153 35895 ft 502 kts 170°
2026-05-04 01:02 39.18504 6.03886 35945 ft 503 kts 170°
2026-05-04 01:03 39.11833 6.06676 35924 ft 506 kts 169°
2026-05-04 01:03 39.05142 6.09534 35906 ft 508 kts 169°
2026-05-04 01:04 38.98426 6.12486 35883 ft 511 kts 168°
2026-05-04 01:04 38.91705 6.15485 35874 ft 512 kts 168°
2026-05-04 01:05 38.84956 6.18457 35885 ft 513 kts 168°
2026-05-04 01:05 38.78186 6.21365 35952 ft 512 kts 169°
2026-05-04 01:06 38.71455 6.24201 35987 ft 512 kts 169°
2026-05-04 01:06 38.64646 6.27007 35905 ft 516 kts 169°
2026-05-04 01:07 38.57789 6.29778 35844 ft 517 kts 169°
2026-05-04 01:07 38.50922 6.32493 35902 ft 516 kts 170°
2026-05-04 01:08 38.44060 6.35154 35971 ft 515 kts 171°
2026-05-04 01:08 38.37190 6.37814 35977 ft 517 kts 170°
2026-05-04 01:09 38.30312 6.40491 35975 ft 518 kts 170°
2026-05-04 01:09 38.23428 6.43194 36014 ft 517 kts 170°
2026-05-04 01:10 38.16550 6.45923 36062 ft 518 kts 170°
2026-05-04 01:10 38.09673 6.48680 36029 ft 519 kts 169°
2026-05-04 01:11 38.02771 6.51463 35965 ft 522 kts 169°